Location: Newark
(51.3318°N, 0.0053°E)
Time: 03:11:22
(UTC+00:00)

ITUPSAT 1 - Pass Details

Date: 07 July 2022
Orbit: 701 x 711 km, 98.6° (Epoch: 09 August)

Event Time Altitude Azimuth Distance (km) Brightness Sun altitude
Rises 21:58:05 0° 6° (N) 3,116 ? -11.1°
Reaches altitude 10° 22:00:43 10° 353° (N) 2,194 ? -11.3°
Maximum altitude 22:04:27 23° 301° (WNW) 1,486 ? -11.6°
Drops below altitude 10° 22:08:11 10° 250° (WSW) 2,187 ? -11.8°
Sets 22:10:49 0° 236° (WSW) 3,103 ? -12.0°
